TimeCDT,TemperatureF,Dew PointF,Humidity,Sea Level PressureIn,VisibilityMPH,Wind Direction,Wind SpeedMPH,Gust SpeedMPH,PrecipitationIn,Events,Conditions,WindDirDegrees,DateUTC
12:54 AM,54.0,42.1,64,30.01,10.0,SSE,5.8,-,0.00,Rain,Light Rain,160,2013-04-23 05:54:00
1:54 AM,50.0,46.9,89,30.02,10.0,SSE,3.5,-,0.03,Rain,Light Rain,150,2013-04-23 06:54:00
2:54 AM,50.0,48.0,93,29.97,10.0,SE,4.6,-,0.00,Rain,Light Rain,130,2013-04-23 07:54:00
3:54 AM,50.0,48.0,93,29.97,10.0,SSE,3.5,-,0.00,,Overcast,160,2013-04-23 08:54:00
4:54 AM,50.0,46.9,89,29.96,8.0,Calm,Calm,-,0.00,,Overcast,0,2013-04-23 09:54:00
5:54 AM,48.9,48.0,97,29.96,7.0,SW,3.5,-,N/A,,Overcast,220,2013-04-23 10:54:00
6:54 AM,48.9,46.9,93,29.96,5.0,South,3.5,-,N/A,,Overcast,170,2013-04-23 11:54:00
7:54 AM,51.1,48.9,92,29.96,7.0,WSW,3.5,-,N/A,,Overcast,240,2013-04-23 12:54:00
8:35 AM,51.8,48.2,88,29.97,7.0,NW,9.2,-,N/A,,Overcast,310,2013-04-23 13:35:00
8:54 AM,50.0,46.9,89,29.96,8.0,NW,10.4,-,N/A,,Overcast,320,2013-04-23 13:54:00
9:22 AM,48.2,44.6,87,29.96,9.0,NW,9.2,-,N/A,,Overcast,310,2013-04-23 14:22:00
9:54 AM,46.9,42.1,83,29.98,9.0,NW,10.4,-,N/A,,Overcast,320,2013-04-23 14:54:00
10:26 AM,46.4,42.8,87,29.98,7.0,WNW,10.4,-,0.01,Rain,Light Rain,300,2013-04-23 15:26:00
10:54 AM,44.1,41.0,89,30.00,5.0,WNW,10.4,-,0.03,Rain,Light Rain,300,2013-04-23 15:54:00
11:24 AM,42.8,39.2,87,29.99,6.0,WNW,11.5,-,0.03,Rain,Rain,300,2013-04-23 16:24:00
11:54 AM,42.1,39.0,89,30.00,5.0,NW,10.4,-,0.07,Rain,Light Rain,320,2013-04-23 16:54:00
12:54 PM,41.0,37.9,89,29.99,6.0,NNW,11.5,-,0.08,Rain,Light Rain,330,2013-04-23 17:54:00
1:08 PM,39.2,37.4,93,29.98,7.0,North,12.7,-,0.02,Rain,Light Rain,350,2013-04-23 18:08:00
1:52 PM,39.2,37.4,93,29.98,7.0,NNW,10.4,-,0.07,Rain,Light Rain,340,2013-04-23 18:52:00
1:54 PM,41.0,37.9,89,29.99,7.0,NNW,9.2,-,0.07,Rain,Light Rain,330,2013-04-23 18:54:00
2:03 PM,41.0,37.4,87,29.99,8.0,NNW,9.2,-,0.01,Rain,Light Rain,330,2013-04-23 19:03:00
2:54 PM,41.0,37.0,86,29.98,9.0,North,9.2,-,0.03,Rain,Light Rain,360,2013-04-23 19:54:00
3:54 PM,39.9,37.0,89,29.97,10.0,North,13.8,-,0.02,Rain,Light Rain,350,2013-04-23 20:54:00
4:54 PM,39.0,36.0,89,29.97,10.0,North,13.8,-,0.02,Rain,Light Rain,360,2013-04-23 21:54:00
5:54 PM,39.0,36.0,89,29.99,10.0,North,11.5,-,0.01,Rain,Light Rain,350,2013-04-23 22:54:00
6:54 PM,39.0,36.0,89,30.00,10.0,North,9.2,-,0.03,Rain,Light Rain,10,2013-04-23 23:54:00
7:54 PM,39.0,37.0,93,29.99,10.0,North,3.5,-,0.01,,Overcast,360,2013-04-24 00:54:00
8:33 PM,39.2,35.6,87,29.98,10.0,North,8.1,-,N/A,,Overcast,350,2013-04-24 01:33:00
8:54 PM,39.9,37.0,89,29.99,10.0,NNW,5.8,-,N/A,,Overcast,340,2013-04-24 01:54:00
9:54 PM,39.9,33.1,77,30.00,10.0,North,9.2,-,N/A,,Overcast,350,2013-04-24 02:54:00
10:54 PM,39.9,33.1,77,29.99,10.0,North,10.4,-,N/A,,Overcast,360,2013-04-24 03:54:00
11:54 PM,39.0,32.0,76,30.01,10.0,North,10.4,-,N/A,,Overcast,350,2013-04-24 04:54:00